STARLINK-3925, 52498

Orbit data source: Space-Track

STARLINK-3925, 52498 is a payload satellite owned by SpaceX/Seattle (US) in LEO that was launched on Fri, 06 May 2022 UTC via an FALCON 9 launch vehicle from the Air Force Eastern Test Range (AFETR). Payload-class satellites include a variety of spacecraft equipped with specific instruments for various scientific and technological missions. These include communications satellites like Starlink; space stations such as the ISS; scientific satellites like the Hubble; Earth observation satellites from companies like Planet Labs, Umbra, and HawkEye 360; GPS; miniature CubeSats for education and research; and military/defense satellites.

Loading next visibility...
Identifier
52498, 2022-049AZ
Orbit
LEO
Country
Flag of USUS
Related business
Manufacturer
SpaceX/Seattle
Mission
Operational Commercial Communications
Bus & Motor
STARLINK, Unknown motor
Mass
297 kg wet, ~220 kg dry
Launch date (UTC)
2022-05-06 (4 years ago)
Launch vehicle
FALCON 9
Launch site
Air Force Eastern Test Range (AFETR)
Object type
Payload
Rocket body
Debris
Shape & HBR
Box + 1 Pan, 10.1 m
Radar Cross Section
13.562 m², Large (>1 m²)

Expand to show TLE details & history
Last TLE update: 23 hours ago

TLE from 23 hours ago
0 STARLINK-3925
1 52498U 22049AZ  26206.24011507 -.00000278  00000-0  63844-6 0  9990
2 52498  53.1623 141.3082 0001153  87.9573 272.1550 15.08834228233290
Epoch: 2026-07-25T05:45Z
TLE epoch observation values (Epoch: 2026-07-25T05:45:45.942Z)
Latitude
-0.00004°
Longitude
111.91151°
Altitude
540.623 km
Speed
7.593 km/s
True Right ascension
09h 25m 13s
True Declination
0° 00' 00"
Sunlit
Object was in daylight at epoch
Visualization orbit readout
Latitude
Unknown
Longitude
Unknown
Altitude
Unknown
Speed
Unknown
Apparent Right ascension
Unknown
Apparent Declination
Unknown
Sunlit
N/A
Visualization observer readout
Local Sidereal Time
18:19:18
Azimuth
Unknown
Elevation
Unknown
Doppler factor
Unknown
Orbital elements
Apogee altitude
540.812 km
Perigee altitude
539.217 km
Semi-major axis
6,918.152 km
Eccentricity
0.00012
Inclination
53.1623°
RAAN
141.3082°
Arg. of periapsis
87.9573°
True anomaly
272.1418°
Mean anomaly
272.155°
Eccentric anomaly
272.1484°
Mean motion
3.77188 °/min
Orbital period
95.44 mins
BSTAR
6.3844e-7
Loading maneuver chart data...
Computing Atmospheric mass density...
Loading historical data...
Loading historical data...
Loading historical data...
Loading historical data...
Loading historical data...
Loading historical data...
Loading historical data...

Documentation

Showing up to 5 results
|